Regional Weather Roundup
Issued by NWS

Home | Current Version | Previous Version | Text Only | Print | Product List | Glossary On
Versions: 1 2 3 4 5 6 7 8 9 10 11 12 13 14 15 16 17 18 19 20 21 22 23 24 25 26 27 28 29 30 31 32 33 34 35 36 37 38 39 40 41 42 43 44 45 46 47 48 49 50
000
ASUS43 KDMX 280507
RWRIA

WEATHER ROUNDUP FOR IOWA
NATIONAL WEATHER SERVICE DES MOINES IA
1200 AM CDT THU AUG 28 2014

NOTE: "FAIR" INDICATES FEW OR NO CLOUDS BELOW 12,000 FEET WITH NO
SIGNIFICANT WEATHER AND/OR OBSTRUCTIONS TO VISIBILITY.

* - THESE STATIONS ARE NOT NWS STATIONS...THUS NOT UNDER NWS
QUALITY CONTROL.  THEY ALSO DO NOT REPORT WEATHER SUCH
AS PRECIPITATION OR FOG.

IAZ001>003-012>014-020>022-031>034-043>046-280600-
   NORTHWEST IOWA

CITY           SKY/WX    TMP DP  RH WIND       PRES   REMARKS
CARROLL *      CLOUDY    68  68 100 E3        30.09S
DENISON *      CLOUDY    68  68 100 SE5       30.07S
LE MARS *      CLOUDY    70  68  94 VRB5      30.08F
ORANGE CITY *  LGT RAIN  70  66  88 E6        30.09F
SHELDON *      CLOUDY    68  66  94 SE5       30.09F
SIOUX CITY     CLOUDY    69  67  93 SE5       30.07F
SPENCER        CLOUDY    68  63  84 E8        30.11F
STORM LAKE *   CLOUDY    68  68 100 E7        30.09F
$$

IAZ055>058-069>071-079>083-090>094-280600-
   SOUTHWEST IOWA

CITY           SKY/WX    TMP DP  RH WIND       PRES   REMARKS
ATLANTIC *     DRIZZLE   70  68  94 N5        30.06F
AUDUBON *      CLOUDY    70  68  94 CALM      30.11R FOG
CLARINDA *     CLOUDY    72  70  94 NE3       30.08S
COUNCIL BLFS * CLOUDY    70  70 100 E9        30.06F
CRESTON *      CLOUDY    70  70 100 E6        30.09F FOG
HARLAN  *      CLOUDY    68  68 100 CALM      30.12S
LAMONI         CLOUDY    71  69  93 CALM      30.08S
RED OAK *      CLOUDY    72  70  94 VRB7      30.06S
SHENANDOAH *   MOCLDY    72  70  94 E6        30.05F
$$

IAZ047>049-059>061-072>074-084-280600-
   CENTRAL IOWA

CITY           SKY/WX    TMP DP  RH WIND       PRES   REMARKS
AMES           CLOUDY    68  66  93 CALM      30.10F
ANKENY *       CLOUDY    70  68  94 NE5       30.09S
CHARITON *     CLOUDY    70  68  94 E6        30.08F
DES MOINES     CLOUDY    72  67  84 E6        30.07F
GRINNELL*      CLOUDY    66  64  94 E3        30.11S
KNOXVILLE *    CLOUDY    70  66  88 E6        30.08F
MARSHALLTOWN   CLOUDY    66  64  93 E5        30.11S
PELLA *        CLOUDY    70  66  88 E5        30.10F
PERRY *        MOCLDY    70  68  94 CALM      30.09S
$$

IAZ004>006-015-016-023>025-035-036-280600-
   NORTH CENTRAL IOWA

CITY           SKY/WX    TMP DP  RH WIND       PRES   REMARKS
ALGONA *       CLOUDY    68  63  83 E6        30.12F
CLARION *      MOCLDY    66  63  88 E6        30.11F
ESTHERVILLE    CLOUDY    63  61  93 E6        30.11F
FORT DODGE *   CLOUDY    66  64  94 E5        30.12S
MASON CITY     CLOUDY    62  61  96 E5        30.15F
FOREST CITY *  CLOUDY    64  63  94 E3        30.13F
IOWA FALLS *   CLOUDY    66  63  88 CALM      30.12F
$$

IAZ007>011-017>019-026>030-037>042-050>054-066-280600-
   NORTHEAST IOWA

CITY           SKY/WX    TMP DP  RH WIND       PRES   REMARKS
CEDAR RAPIDS   PTCLDY    67  62  84 E3        30.11S
CHARLES CITY * CLEAR     63  61  94 E5        30.15F
CLINTON *      PTCLDY    63  61  94 NE6       30.14S
DECORAH *      MOCLDY    61  59  94 CALM      30.15S
DUBUQUE        MOCLDY    65  61  87 NE5       30.15R
MONTICELLO *   PTCLDY    63  63 100 CALM      30.13S
OELWEIN *      CLEAR     63  61  94 NE5       30.15S
WATERLOO       PTCLDY    63  61  93 NE3       30.12F
$$

IAZ064-065-067-068-078-280600-
   EAST CENTRAL IOWA

CITY           SKY/WX    TMP DP  RH WIND       PRES   REMARKS
DAVENPORT      PTCLDY    64  60  87 NE7       30.12S
IOWA CITY      PTCLDY    69  64  84 NE5       30.12R
MT. PLEASANT * PTCLDY    68  66  94 NE3       30.10S
MUSCATINE *    CLEAR     64  63  94 CALM      30.11R
QUAD CITIES    CLEAR     64  61  90 SE3       30.11S
$$

IAZ062-063-075>077-085>089-095>099-280600-
   SOUTHEAST IOWA

CITY           SKY/WX    TMP DP  RH WIND       PRES   REMARKS
BURLINGTON     CLEAR     71  66  84 E7        30.09S
FAIRFIELD *    CLOUDY    70  66  88 E6        30.10S
FORT MADISON * CLEAR     72  70  94 NE3       30.10S
KEOKUK *       MOCLDY    72  68  88 NE6       30.08S
OSKALOOSA *    MOCLDY    68  66  94 E6        30.10S
CENTERVILLE *  CLEAR     68  68 100 NE5       30.10F
OTTUMWA        CLOUDY    70  67  90 E6        30.09S
WASHINGTON *   CLEAR     68  66  94 NE5       30.10S
$$

ABBREVIATIONS USED IN REMARKS
   TC - TEMPERATURES IN CELSIUS
  WCI - WIND CHILL INDEX
   HX - HEAT INDEX
  VSB - VISIBILITY
$$



USA.gov is the U.S. government's official web portal to all federal, state and local government web resources and services.